[Iaude] MPEC P68: 2024 PX [a=1.28,e=0.14,i=23.0,H=23.8]
    mpec at cfa.harvard.edu 
    mpec at cfa.harvard.edu
       
    Mon Aug  5 19:49:39 EDT 2024
    
    
  
M.P.E.C. 2024-P68                                Issued 2024 August 5, 23:47 UT
     The Minor Planet Electronic Circulars contain information on unusual
         minor planets, routine data on comets and natural satellites,
         and occasional editorial announcements.  They are published
    on behalf of Division F of the International Astronomical Union by the
          Minor Planet Center, Smithsonian Astrophysical Observatory,
                          Cambridge, MA 02138, U.S.A.
			  
             Prepared using the Tamkin Foundation Computer Network
                              MPC at CFA.HARVARD.EDU
            URL https://www.minorplanetcenter.net/    ISSN 1523-6714
                                    2024 PX                                     
Observations:
     K24P00X  C2024 07 27.49247322 05 05.949-24 54 45.43         19.88GVEP068F51
     K24P00X  C2024 07 27.50255722 05 07.968-24 57 02.18               VEP068F51
     K24P00X  C2024 07 27.51315522 05 10.106-24 59 25.62         19.93GVEP068F51
     K24P00X  C2024 07 27.52349922 05 12.201-25 01 45.92         19.87GVEP068F51
     K24P00X  C2024 07 27.59021122 05 25.808-25 16 46.17         19.11GVEP068F51
     K24P00X* C2024 08 01.48036322 25 58.457-41 54 19.17         20.44wXEP068F51
     K24P00X  C2024 08 01.48811022 26 00.133-41 55 41.21         20.45wXEP068F51
     K24P00X  C2024 08 01.49585022 26 01.853-41 57 04.19         20.69wXEP068F51
     K24P00X  C2024 08 01.50356722 26 03.547-41 58 27.13         21.01wXEP068F51
     K24P00X KC2024 08 01.68168822 26 47.578-42 28 30.97         21.0 GVEP068474
     K24P00X KC2024 08 01.68570422 26 48.506-42 29 12.41         20.5 GVEP068474
     K24P00X KC2024 08 01.68971922 26 49.452-42 29 54.35         20.3 GVEP068474
     K24P00X KC2024 08 01.69373522 26 50.407-42 30 36.14         20.4 GVEP068474
     K24P00X KC2024 08 05.64196622 44 33.605-52 28 51.10         20.7 GVEP068474
     K24P00X KC2024 08 05.64455722 44 34.320-52 29 10.57         20.3 GVEP068474
     K24P00X KC2024 08 05.64844222 44 35.218-52 29 40.81         21.4 GVEP068474
Observer details:
474 Mount John Observatory, Lake Tekapo.  Observers A. C. Gilmore, P. M.
    Kilmartin.  Measurer P. M. Kilmartin.  0.6-m f/6.3 Reflector + CCD.
F51 Pan-STARRS 1, Haleakala.  Observers J. Herman, T. Lowe, P. Minguez, A.
    Schultz, I. Smith.  Measurers K. Chambers, T. de Boer, J. Fairlamb, H.
    Gao, M. Huber, C.-C. Lin, E. Magnier, Y. Ramanjooloo, R. Wainscoat, R.
    Weryk.  1.8-m Ritchey-Chretien + CCD.
Orbital elements:
2024 PX                                                  Earth MOID = 0.0912 AU
Epoch 2024 Oct. 17.0 TT = JDT 2460600.5                 Veres                   
M  66.84861              (2000.0)            P               Q                  
n   0.68053344     Peri.  167.68024     +0.37915152     +0.86639484             
a   1.2800779      Node   123.73006     -0.87868845     +0.44720165             
e   0.1381182      Incl.   23.00084     -0.29008745     -0.22219509             
P   1.45           H   23.88          G   0.15           U   8                  
Residuals in seconds of arc
240727 F51  0.2+  0.4-    240801 F51 (0.3-  0.6+)   240801 474  0.0   0.1-
240727 F51  0.0   0.1-    240801 F51  0.1-  0.1+    240805 474  0.2-  0.1-
240727 F51  0.0   0.3+    240801 F51 (0.2-  0.7-)   240805 474  0.6+  0.3+
240727 F51  0.1+  0.3+    240801 474  0.1+  0.1+    240805 474  0.2+  0.1-
240727 F51  0.2+  0.0     240801 474  0.1-  0.4+
240801 F51  0.0   0.2-    240801 474  0.1-  0.1+
Ephemeris:
2024 PX                  a,e,i = 1.28, 0.14, 23                  q = 1.1033
Date    TT    R. A. (2000) Decl.     Delta      r    Elong.  Phase     V
2024 07 06    20 57 40.3 +33 19 15   0.1666  1.1036   117.5    54.8    22.2
...
2024 07 21    21 40 55.4 -00 13 39   0.1028  1.1050   148.5    28.7    20.4
...
2024 07 29    22 11 11.8 -30 26 50   0.1022  1.1088   155.0    22.8    20.2
...
2024 08 04    22 37 07.5 -48 41 59   0.1208  1.1130   142.5    33.7    20.9
2024 08 05    22 41 39.1 -51 03 36   0.1251  1.1138   140.4    35.5    21.1
2024 08 06    22 46 13.2 -53 14 04   0.1296  1.1146   138.4    37.1    21.2
...
2024 08 12    23 13 59.9 -62 58 06   0.1603  1.1202   128.5    45.1    21.9
...
2024 08 20    23 48 52.4 -69 54 10   0.2067  1.1293   120.0    50.9    22.6
...
2024 09 04    00 30 38.2 -74 16 41   0.2971  1.1507   111.4    54.7    23.5
M. P. C. Staff               (C) Copyright 2024 MPC           M.P.E.C. 2024-P68
    
    
More information about the Iaude
mailing list